| time (UTC) | temp F | wind direction | speed MPH | gust MPH | rain 1hr in | rain 24hr in | rain mn in | humidity % | barometer mb |
| 20260507095521 | 75 | 180 | 1.0 | 4.0 | 0.00 | 0.00 | 0.00 | 50 | 1017.4 |
| 20260507095322 | 75 | 200 | 3.0 | 4.0 | 0.00 | 0.00 | 0.00 | 51 | 1017.4 |
| 20260507095122 | 75 | 192 | 3.0 | 4.0 | 0.00 | 0.00 | 0.00 | 51 | 1017.5 |
| 20260507094922 | 75 | 189 | 0.0 | 5.0 | 0.00 | 0.00 | 0.00 | 51 | 1017.5 |
| 20260507094722 | 75 | 161 | 3.0 | 5.0 | 0.00 | 0.00 | 0.00 | 51 | 1017.4 |
| 20260507094509 | 75 | 322 | 1.0 | 5.0 | 0.00 | 0.00 | 0.00 | 49 | 1017.5 |
| 20260507094310 | 75 | 272 | 1.0 | 5.0 | 0.00 | 0.00 | 0.00 | 53 | 1017.5 |
| 20260507094109 | 75 | 147 | 5.0 | 5.0 | 0.00 | 0.00 | 0.00 | 49 | 1017.5 |
| 20260507093909 | 75 | 227 | 0.0 | 4.0 | 0.00 | 0.00 | 0.00 | 51 | 1017.6 |
| 20260507093709 | 75 | 127 | 0.0 | 4.0 | 0.00 | 0.00 | 0.00 | 50 | 1017.6 |
| 20260507093509 | 74 | 183 | 2.0 | 4.0 | 0.00 | 0.00 | 0.00 | 53 | 1017.6 |
| 20260507093309 | 74 | 132 | 1.0 | 4.0 | 0.00 | 0.00 | 0.00 | 50 | 1017.6 |
| 20260507093110 | 74 | 214 | 2.0 | 4.0 | 0.00 | 0.00 | 0.00 | 52 | 1017.6 |
| 20260507092910 | 74 | 130 | 0.0 | 4.0 | 0.00 | 0.00 | 0.00 | 51 | 1017.7 |
| 20260507092710 | 74 | 143 | 2.0 | 5.0 | 0.00 | 0.00 | 0.00 | 51 | 1017.8 |
| 20260507092509 | 74 | 170 | 2.0 | 5.0 | 0.00 | 0.00 | 0.00 | 53 | 1017.6 |
| 20260507092309 | 73 | 242 | 0.0 | 5.0 | 0.00 | 0.00 | 0.00 | 52 | 1017.9 |
| 20260507092109 | 73 | 104 | 0.0 | 5.0 | 0.00 | 0.00 | 0.00 | 52 | 1017.6 |
| 20260507091910 | 73 | 273 | 1.0 | 5.0 | 0.00 | 0.00 | 0.00 | 55 | 1017.7 |
| 20260507091709 | 73 | 188 | 2.0 | 5.0 | 0.00 | 0.00 | 0.00 | 53 | 1017.6 |
| 20260507091509 | 73 | 154 | 2.0 | 5.0 | 0.00 | 0.00 | 0.00 | 53 | 1017.7 |
| 20260507091309 | 73 | 199 | 4.0 | 5.0 | 0.00 | 0.00 | 0.00 | 53 | 1017.8 |
| 20260507091109 | 73 | 351 | 2.0 | 5.0 | 0.00 | 0.00 | 0.00 | 53 | 1017.7 |
| 20260507090909 | 73 | 218 | 0.0 | 5.0 | 0.00 | 0.00 | 0.00 | 55 | 1017.6 |
| 20260507090709 | 73 | 140 | 4.0 | 5.0 | 0.00 | 0.00 | 0.00 | 54 | 1017.8 |
| 20260507090508 | 73 | 349 | 3.0 | 5.0 | 0.00 | 0.00 | 0.00 | 55 | 1017.6 |
| 20260507090310 | 73 | 315 | 1.0 | 4.0 | 0.00 | 0.00 | 0.00 | 54 | 1017.5 |
| 20260507090109 | 73 | 48 | 4.0 | 4.0 | 0.00 | 0.00 | 0.00 | 53 | 1017.6 |
| 20260507085909 | 73 | 165 | 0.0 | 4.0 | 0.00 | 0.00 | 0.00 | 54 | 1017.8 |
| 20260507085710 | 73 | 144 | 0.0 | 4.0 | 0.00 | 0.00 | 0.00 | 54 | 1017.8 |
| 20260507085509 | 73 | 358 | 1.0 | 4.0 | 0.00 | 0.00 | 0.00 | 54 | 1017.7 |
| 20260507085309 | 73 | 177 | 1.0 | 4.0 | 0.00 | 0.00 | 0.00 | 54 | 1017.7 |
| 20260507085109 | 73 | 33 | 0.0 | 4.0 | 0.00 | 0.00 | 0.00 | 54 | 1017.6 |
| 20260507084910 | 73 | 208 | 0.0 | 3.0 | 0.00 | 0.00 | 0.00 | 56 | 1017.6 |
| 20260507084709 | 72 | 126 | 2.0 | 4.0 | 0.00 | 0.00 | 0.00 | 55 | 1017.8 |
| 20260507084510 | 72 | 156 | 2.0 | 4.0 | 0.00 | 0.00 | 0.00 | 55 | 1017.6 |
| 20260507084309 | 72 | 213 | 2.0 | 4.0 | 0.00 | 0.00 | 0.00 | 54 | 1017.7 |
| 20260507084108 | 72 | 329 | 1.0 | 4.0 | 0.00 | 0.00 | 0.00 | 54 | 1017.6 |
| 20260507083909 | 72 | 179 | 3.0 | 4.0 | 0.00 | 0.00 | 0.00 | 56 | 1017.7 |
| 20260507083708 | 72 | 161 | 2.0 | 4.0 | 0.00 | 0.00 | 0.00 | 55 | 1017.8 |
| 20260507083508 | 72 | 281 | 1.0 | 5.0 | 0.00 | 0.00 | 0.00 | 54 | 1017.8 |
| 20260507083308 | 71 | 171 | 1.0 | 5.0 | 0.00 | 0.00 | 0.00 | 55 | 1017.8 |
| 20260507083108 | 70 | 147 | 0.0 | 5.0 | 0.00 | 0.00 | 0.00 | 56 | 1017.8 |
| 20260507082908 | 70 | 202 | 1.0 | 5.0 | 0.00 | 0.00 | 0.00 | 57 | 1018.0 |
| 20260507082708 | 71 | 188 | 2.0 | 5.0 | 0.00 | 0.00 | 0.00 | 57 | 1018.0 |
| 20260507082508 | 71 | 222 | 2.0 | 4.0 | 0.00 | 0.00 | 0.00 | 59 | 1018.0 |
| 20260507082308 | 70 | 214 | 0.0 | 4.0 | 0.00 | 0.00 | 0.00 | 56 | 1018.0 |
| 20260507082108 | 71 | 214 | 2.0 | 4.0 | 0.00 | 0.00 | 0.00 | 57 | 1018.1 |
| 20260507081908 | 71 | 175 | 2.0 | 2.0 | 0.00 | 0.00 | 0.00 | 57 | 1017.8 |
| 20260507081708 | 71 | 326 | 0.0 | 3.0 | 0.00 | 0.00 | 0.00 | 56 | 1018.1 |
| 20260507081523 | 71 | 164 | 0.0 | 3.0 | 0.00 | 0.00 | 0.00 | 57 | 1017.8 |
| 20260507081309 | 70 | 200 | 0.0 | 3.0 | 0.00 | 0.00 | 0.00 | 58 | 1017.9 |
| 20260507081108 | 70 | 224 | 0.0 | 3.0 | 0.00 | 0.00 | 0.00 | 58 | 1018.0 |
| 20260507080908 | 69 | 148 | 0.0 | 4.0 | 0.00 | 0.00 | 0.00 | 58 | 1017.8 |
| 20260507080708 | 69 | 359 | 1.0 | 4.0 | 0.00 | 0.00 | 0.00 | 58 | 1017.8 |
| 20260507080508 | 69 | 211 | 0.0 | 4.0 | 0.00 | 0.00 | 0.00 | 59 | 1017.9 |
| 20260507080308 | 69 | 133 | 1.0 | 4.0 | 0.00 | 0.00 | 0.00 | 59 | 1017.6 |
| 20260507075908 | 69 | 142 | 2.0 | 5.0 | 0.00 | 0.00 | 0.00 | 59 | 1017.5 |
| 20260507075708 | 68 | 167 | 1.0 | 5.0 | 0.00 | 0.00 | 0.00 | 61 | 1017.7 |
| 20260507075508 | 68 | 215 | 3.0 | 5.0 | 0.00 | 0.00 | 0.00 | 62 | 1017.8 |
| 20260507075309 | 68 | 246 | 2.0 | 5.0 | 0.00 | 0.00 | 0.00 | 62 | 1017.7 |
| 20260507075109 | 68 | 294 | 0.0 | 4.0 | 0.00 | 0.00 | 0.00 | 60 | 1017.7 |
| 20260507074909 | 69 | 157 | 3.0 | 4.0 | 0.00 | 0.00 | 0.00 | 59 | 1017.7 |
| 20260507074708 | 69 | 333 | 0.0 | 3.0 | 0.00 | 0.00 | 0.00 | 59 | 1017.8 |
| 20260507074509 | 69 | 56 | 1.0 | 4.0 | 0.00 | 0.00 | 0.00 | 59 | 1017.6 |
| 20260507074308 | 69 | 34 | 0.0 | 4.0 | 0.00 | 0.00 | 0.00 | 60 | 1017.8 |
| 20260507074108 | 68 | 129 | 1.0 | 4.0 | 0.00 | 0.00 | 0.00 | 62 | 1017.9 |
| 20260507073908 | 67 | 202 | 2.0 | 4.0 | 0.00 | 0.00 | 0.00 | 63 | 1017.8 |
| 20260507073708 | 67 | 123 | 1.0 | 4.0 | 0.00 | 0.00 | 0.00 | 61 | 1017.7 |
| 20260507073508 | 68 | 150 | 4.0 | 4.0 | 0.00 | 0.00 | 0.00 | 61 | 1017.7 |
| 20260507073310 | 68 | 161 | 0.0 | 4.0 | 0.00 | 0.00 | 0.00 | 60 | 1017.8 |
| 20260507073109 | 68 | 82 | 0.0 | 4.0 | 0.00 | 0.00 | 0.00 | 62 | 1017.8 |
| 20260507072909 | 68 | 13 | 2.0 | 3.0 | 0.00 | 0.00 | 0.00 | 60 | 1017.9 |
| 20260507072709 | 68 | 89 | 0.0 | 4.0 | 0.00 | 0.00 | 0.00 | 60 | 1017.9 |
| 20260507072509 | 67 | 244 | 0.0 | 5.0 | 0.00 | 0.00 | 0.00 | 61 | 1017.6 |
| 20260507072308 | 67 | 89 | 0.0 | 5.0 | 0.00 | 0.00 | 0.00 | 62 | 1017.8 |
| 20260507072109 | 67 | 164 | 0.0 | 5.0 | 0.00 | 0.00 | 0.00 | 61 | 1017.9 |
| 20260507071909 | 67 | 213 | 0.0 | 5.0 | 0.00 | 0.00 | 0.00 | 62 | 1017.7 |
| 20260507071709 | 68 | 168 | 1.0 | 5.0 | 0.00 | 0.00 | 0.00 | 60 | 1018.0 |
| 20260507071508 | 68 | 134 | 0.0 | 3.0 | 0.00 | 0.00 | 0.00 | 61 | 1017.8 |
| 20260507071308 | 67 | 220 | 1.0 | 3.0 | 0.00 | 0.00 | 0.00 | 61 | 1017.9 |
| 20260507071108 | 66 | 185 | 1.0 | 3.0 | 0.00 | 0.00 | 0.00 | 63 | 1017.9 |
| 20260507070908 | 65 | 4 | 0.0 | 3.0 | 0.00 | 0.00 | 0.00 | 63 | 1017.9 |
| 20260507070708 | 66 | 37 | 3.0 | 3.0 | 0.00 | 0.00 | 0.00 | 62 | 1017.9 |
| 20260507070508 | 66 | 63 | 2.0 | 3.0 | 0.00 | 0.00 | 0.00 | 63 | 1017.9 |
| 20260507070308 | 66 | 147 | 3.0 | 3.0 | 0.00 | 0.00 | 0.00 | 63 | 1017.8 |
| 20260507070108 | 66 | 159 | 2.0 | 3.0 | 0.00 | 0.00 | 0.00 | 63 | 1018.1 |
| 20260507065909 | 65 | 7 | 1.0 | 2.0 | 0.00 | 0.00 | 0.00 | 63 | 1018.0 |
| 20260507065708 | 65 | 202 | 0.0 | 3.0 | 0.00 | 0.00 | 0.00 | 64 | 1018.0 |
| 20260507065508 | 65 | 57 | 1.0 | 3.0 | 0.00 | 0.00 | 0.00 | 63 | 1018.0 |
| 20260507065308 | 65 | 121 | 1.0 | 3.0 | 0.00 | 0.00 | 0.00 | 64 | 1018.0 |
| 20260507065110 | 64 | 105 | 2.0 | 3.0 | 0.00 | 0.00 | 0.00 | 64 | 1018.0 |
| 20260507064909 | 65 | 176 | 2.0 | 3.0 | 0.00 | 0.00 | 0.00 | 65 | 1017.9 |
| 20260507064708 | 64 | 65 | 1.0 | 3.0 | 0.00 | 0.00 | 0.00 | 66 | 1018.0 |
| 20260507064508 | 65 | 141 | 0.0 | 3.0 | 0.00 | 0.00 | 0.00 | 65 | 1018.0 |
| 20260507064308 | 64 | 151 | 2.0 | 3.0 | 0.00 | 0.00 | 0.00 | 66 | 1018.1 |
| 20260507064108 | 64 | 205 | 0.0 | 3.0 | 0.00 | 0.00 | 0.00 | 68 | 1018.0 |
| 20260507063908 | 64 | 187 | 2.0 | 3.0 | 0.00 | 0.00 | 0.00 | 65 | 1018.0 |
| 20260507063708 | 64 | 165 | 2.0 | 3.0 | 0.00 | 0.00 | 0.00 | 65 | 1018.0 |
| 20260507063508 | 64 | 359 | 1.0 | 3.0 | 0.00 | 0.00 | 0.00 | 65 | 1018.1 |
| 20260507063308 | 63 | 139 | 0.0 | 3.0 | 0.00 | 0.00 | 0.00 | 66 | 1018.3 |
| 20260507063108 | 63 | 132 | 2.0 | 4.0 | 0.00 | 0.00 | 0.00 | 67 | 1018.1 |
| 20260507062908 | 63 | 3 | 1.0 | 4.0 | 0.00 | 0.00 | 0.00 | 67 | 1018.1 |
| 20260507062708 | 63 | 132 | 0.0 | 4.0 | 0.00 | 0.00 | 0.00 | 67 | 1018.3 |
| 20260507062508 | 62 | 122 | 0.0 | 4.0 | 0.00 | 0.00 | 0.00 | 70 | 1017.9 |
| 20260507062308 | 62 | 168 | 2.0 | 4.0 | 0.00 | 0.00 | 0.00 | 69 | 1018.1 |
| 20260507062108 | 62 | 161 | 2.0 | 3.0 | 0.00 | 0.00 | 0.00 | 68 | 1018.1 |
| 20260507061908 | 63 | 139 | 3.0 | 3.0 | 0.00 | 0.00 | 0.00 | 68 | 1017.9 |
| 20260507061708 | 62 | 14 | 0.0 | 3.0 | 0.00 | 0.00 | 0.00 | 68 | 1017.9 |
| 20260507061308 | 62 | 1 | 1.0 | 3.0 | 0.00 | 0.00 | 0.00 | 68 | 1018.0 |
| 20260507061108 | 63 | 94 | 0.0 | 3.0 | 0.00 | 0.00 | 0.00 | 67 | 1017.8 |
| 20260507060910 | 62 | 123 | 3.0 | 3.0 | 0.00 | 0.00 | 0.00 | 68 | 1018.1 |
| 20260507060708 | 62 | 121 | 0.0 | 3.0 | 0.00 | 0.00 | 0.00 | 69 | 1017.9 |
| 20260507060508 | 61 | 152 | 1.0 | 3.0 | 0.00 | 0.00 | 0.00 | 70 | 1018.0 |
| 20260507060309 | 60 | 40 | 2.0 | 3.0 | 0.00 | 0.00 | 0.00 | 71 | 1017.9 |
| 20260507060109 | 60 | 69 | 1.0 | 3.0 | 0.00 | 0.00 | 0.00 | 72 | 1017.9 |
| 20260507055909 | 59 | 135 | 0.0 | 3.0 | 0.00 | 0.00 | 0.00 | 75 | 1017.8 |
| 20260507055709 | 59 | 136 | 3.0 | 4.0 | 0.00 | 0.00 | 0.00 | 74 | 1018.0 |
| 20260507055509 | 58 | 178 | 2.0 | 4.0 | 0.00 | 0.00 | 0.00 | 75 | 1017.9 |
| 20260507055309 | 59 | 172 | 2.0 | 4.0 | 0.00 | 0.00 | 0.00 | 74 | 1018.0 |
| 20260507055108 | 59 | 163 | 2.0 | 4.0 | 0.00 | 0.00 | 0.00 | 75 | 1017.9 |
| 20260507054908 | 58 | 129 | 1.0 | 4.0 | 0.00 | 0.00 | 0.00 | 75 | 1018.1 |
| 20260507054709 | 58 | 131 | 2.0 | 3.0 | 0.00 | 0.00 | 0.00 | 75 | 1018.0 |
| 20260507054508 | 58 | 123 | 1.0 | 3.0 | 0.00 | 0.00 | 0.00 | 75 | 1018.1 |
| 20260507054308 | 58 | 159 | 3.0 | 3.0 | 0.00 | 0.00 | 0.00 | 76 | 1017.9 |
| 20260507054108 | 58 | 142 | 2.0 | 3.0 | 0.00 | 0.00 | 0.00 | 77 | 1018.1 |
| 20260507053909 | 58 | 199 | 1.0 | 2.0 | 0.00 | 0.00 | 0.00 | 77 | 1018.0 |
| 20260507053709 | 58 | 180 | 1.0 | 2.0 | 0.00 | 0.00 | 0.00 | 77 | 1018.0 |
| 20260507053509 | 58 | 169 | 0.0 | 2.0 | 0.00 | 0.00 | 0.00 | 76 | 1018.0 |
| 20260507053309 | 57 | 220 | 2.0 | 2.0 | 0.00 | 0.00 | 0.00 | 76 | 1017.9 |
| 20260507053109 | 57 | 142 | 0.0 | 2.0 | 0.00 | 0.00 | 0.00 | 77 | 1018.1 |
| 20260507052909 | 56 | 300 | 2.0 | 2.0 | 0.00 | 0.00 | 0.00 | 77 | 1018.0 |
| 20260507052709 | 56 | 304 | 0.0 | 2.0 | 0.00 | 0.00 | 0.00 | 77 | 1017.9 |
| 20260507052508 | 56 | 242 | 0.0 | 2.0 | 0.00 | 0.00 | 0.00 | 79 | 1017.9 |
| 20260507052308 | 56 | 217 | 0.0 | 2.0 | 0.00 | 0.00 | 0.00 | 78 | 1018.0 |
| 20260507052108 | 56 | 258 | 1.0 | 2.0 | 0.00 | 0.00 | 0.00 | 79 | 1018.0 |
| 20260507051909 | 56 | 142 | 0.0 | 2.0 | 0.00 | 0.00 | 0.00 | 79 | 1017.9 |
| 20260507051711 | 56 | 159 | 0.0 | 2.0 | 0.00 | 0.00 | 0.00 | 78 | 1017.9 |
| 20260507051508 | 56 | 143 | 0.0 | 2.0 | 0.00 | 0.00 | 0.00 | 78 | 1018.1 |
| 20260507051308 | 56 | 191 | 0.0 | 2.0 | 0.00 | 0.00 | 0.00 | 79 | 1018.0 |
| 20260507051108 | 56 | 158 | 0.0 | 2.0 | 0.00 | 0.00 | 0.00 | 79 | 1018.0 |
| 20260507050908 | 55 | 68 | 0.0 | 2.0 | 0.00 | 0.00 | 0.00 | 78 | 1017.8 |
| 20260507050708 | 55 | 143 | 0.0 | 2.0 | 0.00 | 0.00 | 0.00 | 80 | 1017.9 |
| 20260507050508 | 55 | 155 | 0.0 | 2.0 | 0.00 | 0.00 | 0.00 | 79 | 1018.0 |
| 20260507050311 | 53 | 114 | 1.0 | 2.0 | 0.00 | 0.00 | 0.00 | 83 | 1017.9 |
| 20260507050108 | 53 | 135 | 0.0 | 2.0 | 0.00 | 0.00 | 0.00 | 84 | 1017.9 |
| 20260507045908 | 52 | 119 | 0.0 | 2.0 | 0.00 | 0.00 | 0.00 | 84 | 1017.9 |
| 20260507045708 | 51 | 133 | 0.0 | 2.0 | 0.00 | 0.00 | 0.00 | 86 | 1017.9 |
| 20260507045508 | 51 | 189 | 2.0 | 2.0 | 0.00 | 0.00 | 0.00 | 85 | 1017.8 |
| 20260507045308 | 51 | 130 | 0.0 | 2.0 | 0.00 | 0.00 | 0.00 | 85 | 1017.7 |
| 20260507045108 | 51 | 128 | 0.0 | 2.0 | 0.00 | 0.00 | 0.00 | 86 | 1017.9 |
| 20260507044908 | 50 | 93 | 0.0 | 2.0 | 0.00 | 0.00 | 0.00 | 87 | 1017.7 |
| 20260507044708 | 50 | 134 | 0.0 | 2.0 | 0.00 | 0.00 | 0.00 | 88 | 1017.9 |
| 20260507044308 | 50 | 205 | 0.0 | 2.0 | 0.00 | 0.00 | 0.00 | 86 | 1017.8 |
| 20260507044108 | 51 | 139 | 0.0 | 2.0 | 0.00 | 0.00 | 0.00 | 86 | 1017.8 |
| 20260507043908 | 50 | 113 | 0.0 | 2.0 | 0.00 | 0.00 | 0.00 | 86 | 1017.6 |
| 20260507043708 | 50 | 101 | 1.0 | 2.0 | 0.00 | 0.00 | 0.00 | 86 | 1017.6 |
| 20260507043508 | 50 | 59 | 0.0 | 2.0 | 0.00 | 0.00 | 0.00 | 87 | 1017.5 |
| 20260507043309 | 49 | 108 | 1.0 | 2.0 | 0.00 | 0.00 | 0.00 | 87 | 1017.7 |
| 20260507043109 | 49 | 71 | 0.0 | 2.0 | 0.00 | 0.00 | 0.00 | 88 | 1017.7 |
| 20260507042909 | 49 | 133 | 0.0 | 2.0 | 0.00 | 0.00 | 0.00 | 88 | 1017.8 |
| 20260507042709 | 49 | 115 | 2.0 | 2.0 | 0.00 | 0.00 | 0.00 | 89 | 1017.9 |
| 20260507042508 | 48 | 127 | 1.0 | 2.0 | 0.00 | 0.00 | 0.00 | 91 | 1017.8 |
| 20260507042308 | 47 | 68 | 1.0 | 2.0 | 0.00 | 0.00 | 0.00 | 92 | 1017.6 |
| 20260507042108 | 47 | 300 | 0.0 | 2.0 | 0.00 | 0.00 | 0.00 | 93 | 1017.7 |
| 20260507041908 | 47 | 340 | 0.0 | 2.0 | 0.00 | 0.00 | 0.00 | 94 | 1017.6 |
| 20260507041708 | 46 | 290 | 1.0 | 2.0 | 0.00 | 0.00 | 0.00 | 95 | 1017.6 |
| 20260507041508 | 46 | 355 | 0.0 | 3.0 | 0.00 | 0.00 | 0.00 | 95 | 1017.5 |
| 20260507041308 | 46 | 340 | 1.0 | 3.0 | 0.00 | 0.00 | 0.00 | 96 | 1017.6 |
| 20260507041109 | 45 | 320 | 0.0 | 3.0 | 0.00 | 0.00 | 0.00 | 96 | 1017.6 |
| 20260507040909 | 45 | 20 | 2.0 | 3.0 | 0.00 | 0.00 | 0.00 | 96 | 1017.4 |
| 20260507040709 | 45 | 35 | 1.0 | 3.0 | 0.00 | 0.00 | 0.00 | 97 | 1017.7 |
| 20260507040509 | 44 | 39 | 0.0 | 2.0 | 0.00 | 0.00 | 0.00 | 97 | 1017.6 |
| 20260507040310 | 44 | 38 | 0.0 | 2.0 | 0.00 | 0.00 | 0.00 | 97 | 1017.7 |
| 20260507040108 | 44 | 31 | 0.0 | 2.0 | 0.00 | 0.00 | 0.00 | 97 | 1017.5 |
| 20260507035908 | 44 | 50 | 0.0 | 2.0 | 0.00 | 0.00 | 0.00 | 97 | 1017.5 |
| 20260507035708 | 44 | 33 | 0.0 | 2.0 | 0.00 | 0.00 | 0.00 | 97 | 1017.4 |
| 20260507035508 | 44 | 30 | 0.0 | 2.0 | 0.00 | 0.00 | 0.00 | 97 | 1017.5 |
| 20260507035308 | 44 | 25 | 0.0 | 2.0 | 0.00 | 0.00 | 0.00 | 97 | 1017.6 |
| 20260507035108 | 44 | 20 | 1.0 | 2.0 | 0.00 | 0.00 | 0.00 | 97 | 1017.6 |
| 20260507034908 | 44 | 17 | 1.0 | 2.0 | 0.00 | 0.00 | 0.00 | 97 | 1017.5 |
| 20260507034708 | 44 | 13 | 1.0 | 2.0 | 0.00 | 0.00 | 0.00 | 97 | 1017.5 |
| 20260507034508 | 43 | 358 | 1.0 | 2.0 | 0.00 | 0.00 | 0.00 | 97 | 1017.5 |
| 20260507034308 | 43 | 359 | 1.0 | 2.0 | 0.00 | 0.00 | 0.00 | 97 | 1017.5 |
| 20260507034108 | 43 | 22 | 0.0 | 2.0 | 0.00 | 0.00 | 0.00 | 97 | 1017.5 |
| 20260507033908 | 43 | 5 | 1.0 | 2.0 | 0.00 | 0.00 | 0.00 | 97 | 1017.7 |
| 20260507033708 | 43 | 2 | 0.0 | 2.0 | 0.00 | 0.00 | 0.00 | 97 | 1017.5 |
| 20260507033508 | 43 | 22 | 1.0 | 2.0 | 0.00 | 0.00 | 0.00 | 97 | 1017.6 |
| 20260507033308 | 43 | 22 | 1.0 | 2.0 | 0.00 | 0.00 | 0.00 | 97 | 1017.4 |
| 20260507033108 | 43 | 2 | 0.0 | 2.0 | 0.00 | 0.00 | 0.00 | 97 | 1017.7 |
| 20260507032908 | 43 | 23 | 2.0 | 2.0 | 0.00 | 0.00 | 0.00 | 97 | 1017.5 |
| 20260507032708 | 43 | 18 | 0.0 | 2.0 | 0.00 | 0.00 | 0.00 | 97 | 1017.5 |
| 20260507032508 | 43 | 322 | 1.0 | 2.0 | 0.00 | 0.00 | 0.00 | 97 | 1017.5 |
| 20260507032309 | 43 | 47 | 0.0 | 2.0 | 0.00 | 0.00 | 0.00 | 96 | 1017.4 |
| 20260507032110 | 43 | 135 | 0.0 | 2.0 | 0.00 | 0.00 | 0.00 | 97 | 1017.4 |
| 20260507031909 | 43 | 340 | 0.0 | 2.0 | 0.00 | 0.00 | 0.00 | 97 | 1017.3 |
| 20260507031709 | 43 | 2 | 1.0 | 2.0 | 0.00 | 0.00 | 0.00 | 97 | 1017.4 |
| 20260507031509 | 43 | 7 | 2.0 | 2.0 | 0.00 | 0.00 | 0.00 | 97 | 1017.4 |
| 20260507031309 | 43 | 40 | 2.0 | 3.0 | 0.00 | 0.00 | 0.00 | 97 | 1017.3 |
| 20260507031109 | 43 | 7 | 0.0 | 3.0 | 0.00 | 0.00 | 0.00 | 97 | 1017.3 |
| 20260507030909 | 43 | 2 | 0.0 | 3.0 | 0.00 | 0.00 | 0.00 | 97 | 1017.3 |
| 20260507030709 | 43 | 9 | 0.0 | 3.0 | 0.00 | 0.00 | 0.00 | 97 | 1017.5 |
| 20260507030508 | 43 | 31 | 1.0 | 3.0 | 0.00 | 0.00 | 0.00 | 97 | 1017.6 |
| 20260507030308 | 43 | 30 | 2.0 | 3.0 | 0.00 | 0.00 | 0.00 | 97 | 1017.4 |
| 20260507030109 | 43 | 33 | 2.0 | 3.0 | 0.00 | 0.00 | 0.00 | 97 | 1017.4 |
| 20260507025908 | 43 | 21 | 2.0 | 3.0 | 0.00 | 0.00 | 0.00 | 97 | 1017.5 |
| 20260507025709 | 43 | 61 | 1.0 | 3.0 | 0.00 | 0.00 | 0.00 | 97 | 1017.3 |
| 20260507025508 | 43 | 22 | 2.0 | 3.0 | 0.00 | 0.00 | 0.00 | 97 | 1017.3 |
| 20260507025308 | 43 | 46 | 2.0 | 2.0 | 0.00 | 0.00 | 0.00 | 96 | 1017.4 |
| 20260507025108 | 43 | 29 | 1.0 | 2.0 | 0.00 | 0.00 | 0.00 | 96 | 1017.2 |
| 20260507024908 | 43 | 36 | 0.0 | 2.0 | 0.00 | 0.00 | 0.00 | 96 | 1017.5 |
| 20260507024708 | 43 | 31 | 0.0 | 3.0 | 0.00 | 0.00 | 0.00 | 96 | 1017.2 |
| 20260507024508 | 43 | 30 | 0.0 | 3.0 | 0.00 | 0.00 | 0.00 | 96 | 1017.3 |
| 20260507024308 | 43 | 19 | 0.0 | 3.0 | 0.00 | 0.00 | 0.00 | 96 | 1017.2 |
| 20260507024108 | 43 | 38 | 0.0 | 3.0 | 0.00 | 0.00 | 0.00 | 96 | 1017.3 |
| 20260507023909 | 43 | 39 | 2.0 | 3.0 | 0.00 | 0.00 | 0.00 | 96 | 1017.1 |
| 20260507023708 | 43 | 35 | 0.0 | 2.0 | 0.00 | 0.00 | 0.00 | 96 | 1017.2 |
| 20260507023508 | 43 | 46 | 1.0 | 2.0 | 0.00 | 0.00 | 0.00 | 96 | 1017.2 |
| 20260507023308 | 44 | 18 | 0.0 | 2.0 | 0.00 | 0.00 | 0.00 | 96 | 1017.0 |
| 20260507023108 | 44 | 33 | 1.0 | 2.0 | 0.00 | 0.00 | 0.00 | 96 | 1017.2 |
| 20260507022908 | 44 | 25 | 1.0 | 2.0 | 0.00 | 0.00 | 0.00 | 95 | 1017.1 |
| 20260507022708 | 44 | 3 | 0.0 | 2.0 | 0.00 | 0.00 | 0.00 | 95 | 1017.0 |
| 20260507022308 | 44 | 9 | 0.0 | 2.0 | 0.00 | 0.00 | 0.00 | 95 | 1017.2 |
| 20260507022108 | 44 | 48 | 1.0 | 2.0 | 0.00 | 0.00 | 0.00 | 95 | 1017.3 |
| 20260507021909 | 44 | 37 | 2.0 | 2.0 | 0.00 | 0.00 | 0.00 | 96 | 1017.1 |
| 20260507021708 | 44 | 29 | 0.0 | 2.0 | 0.00 | 0.00 | 0.00 | 96 | 1017.2 |
| 20260507021508 | 44 | 33 | 1.0 | 3.0 | 0.00 | 0.00 | 0.00 | 96 | 1017.3 |
| 20260507021308 | 45 | 20 | 0.0 | 3.0 | 0.00 | 0.00 | 0.00 | 96 | 1017.2 |
| 20260507021108 | 44 | 22 | 2.0 | 3.0 | 0.00 | 0.00 | 0.00 | 96 | 1017.3 |
| 20260507020908 | 45 | 19 | 0.0 | 3.0 | 0.00 | 0.00 | 0.00 | 96 | 1017.3 |
| 20260507020708 | 45 | 17 | 1.0 | 3.0 | 0.00 | 0.00 | 0.00 | 96 | 1017.2 |
| 20260507020507 | 45 | 21 | 2.0 | 3.0 | 0.00 | 0.00 | 0.00 | 96 | 1017.2 |
| 20260507020309 | 44 | 14 | 2.0 | 3.0 | 0.00 | 0.00 | 0.00 | 96 | 1017.1 |
| 20260507020108 | 44 | 347 | 0.0 | 3.0 | 0.00 | 0.00 | 0.00 | 97 | 1017.3 |
| 20260507015908 | 44 | 340 | 1.0 | 3.0 | 0.00 | 0.00 | 0.00 | 97 | 1017.2 |
| 20260507015710 | 44 | 358 | 0.0 | 2.0 | 0.00 | 0.00 | 0.00 | 97 | 1017.1 |
| 20260507015508 | 44 | 330 | 2.0 | 3.0 | 0.00 | 0.00 | 0.00 | 97 | 1017.2 |
| 20260507015308 | 44 | 17 | 0.0 | 3.0 | 0.00 | 0.00 | 0.00 | 97 | 1017.2 |
| 20260507015109 | 44 | 357 | 0.0 | 3.0 | 0.00 | 0.00 | 0.00 | 97 | 1017.1 |
| 20260507014908 | 44 | 5 | 0.0 | 3.0 | 0.00 | 0.00 | 0.00 | 97 | 1017.2 |
| 20260507014708 | 44 | 336 | 0.0 | 3.0 | 0.00 | 0.00 | 0.00 | 97 | 1017.1 |
| 20260507014508 | 44 | 7 | 1.0 | 2.0 | 0.00 | 0.00 | 0.00 | 97 | 1017.2 |
| 20260507014309 | 44 | 354 | 1.0 | 2.0 | 0.00 | 0.00 | 0.00 | 97 | 1017.1 |
| 20260507014108 | 44 | 334 | 2.0 | 2.0 | 0.00 | 0.00 | 0.00 | 97 | 1017.2 |
| 20260507013908 | 44 | 7 | 1.0 | 2.0 | 0.00 | 0.00 | 0.00 | 97 | 1017.3 |
| 20260507013708 | 44 | 3 | 0.0 | 2.0 | 0.00 | 0.00 | 0.00 | 97 | 1017.1 |
| 20260507013508 | 44 | 8 | 0.0 | 2.0 | 0.00 | 0.00 | 0.00 | 97 | 1017.3 |
| 20260507013308 | 44 | 331 | 0.0 | 2.0 | 0.00 | 0.00 | 0.00 | 97 | 1017.2 |
| 20260507013109 | 44 | 24 | 1.0 | 2.0 | 0.00 | 0.00 | 0.00 | 97 | 1017.1 |
| 20260507012908 | 44 | 21 | 0.0 | 3.0 | 0.00 | 0.00 | 0.00 | 97 | 1017.3 |
| 20260507012708 | 44 | 55 | 1.0 | 3.0 | 0.00 | 0.00 | 0.00 | 97 | 1017.1 |
| 20260507012509 | 44 | 284 | 0.0 | 3.0 | 0.00 | 0.00 | 0.00 | 97 | 1017.2 |
| 20260507012308 | 44 | 356 | 0.0 | 3.0 | 0.00 | 0.00 | 0.00 | 97 | 1017.0 |
| 20260507012108 | 44 | 28 | 1.0 | 3.0 | 0.00 | 0.00 | 0.00 | 97 | 1017.1 |
| 20260507011908 | 44 | 19 | 2.0 | 2.0 | 0.00 | 0.00 | 0.00 | 97 | 1017.3 |
| 20260507011708 | 44 | 343 | 2.0 | 3.0 | 0.00 | 0.00 | 0.00 | 97 | 1017.1 |
| 20260507011509 | 44 | 357 | 0.0 | 3.0 | 0.00 | 0.00 | 0.00 | 97 | 1017.1 |
| 20260507011309 | 44 | 333 | 1.0 | 3.0 | 0.00 | 0.00 | 0.00 | 97 | 1016.8 |
| 20260507011108 | 44 | 359 | 0.0 | 3.0 | 0.00 | 0.00 | 0.00 | 97 | 1016.8 |
| 20260507010909 | 44 | 0 | 1.0 | 3.0 | 0.00 | 0.00 | 0.00 | 96 | 1016.8 |
| 20260507010709 | 44 | 31 | 1.0 | 3.0 | 0.00 | 0.00 | 0.00 | 96 | 1017.2 |
| 20260507010508 | 44 | 13 | 2.0 | 3.0 | 0.00 | 0.00 | 0.00 | 96 | 1017.1 |
| 20260507010309 | 44 | 338 | 0.0 | 3.0 | 0.00 | 0.00 | 0.00 | 96 | 1016.8 |
| 20260507010108 | 44 | 351 | 1.0 | 2.0 | 0.00 | 0.00 | 0.00 | 96 | 1016.8 |
| 20260507005908 | 44 | 10 | 0.0 | 2.0 | 0.00 | 0.00 | 0.00 | 96 | 1017.0 |
| 20260507005708 | 44 | 7 | 1.0 | 2.0 | 0.00 | 0.00 | 0.00 | 96 | 1017.0 |
| 20260507005508 | 44 | 355 | 2.0 | 2.0 | 0.00 | 0.00 | 0.00 | 96 | 1016.8 |
| 20260507005308 | 45 | 1 | 1.0 | 2.0 | 0.00 | 0.00 | 0.00 | 96 | 1017.2 |
| 20260507005108 | 45 | 1 | 0.0 | 2.0 | 0.00 | 0.00 | 0.00 | 96 | 1017.1 |
| 20260507004912 | 45 | 11 | 0.0 | 2.0 | 0.00 | 0.00 | 0.00 | 96 | 1017.1 |
| 20260507004708 | 45 | 10 | 0.0 | 2.0 | 0.00 | 0.00 | 0.00 | 96 | 1016.8 |
| 20260507004508 | 45 | 16 | 0.0 | 2.0 | 0.00 | 0.00 | 0.00 | 95 | 1016.8 |
| 20260507004309 | 45 | 11 | 1.0 | 2.0 | 0.00 | 0.00 | 0.00 | 95 | 1017.0 |
| 20260507004108 | 45 | 353 | 0.0 | 2.0 | 0.00 | 0.00 | 0.00 | 95 | 1016.8 |
| 20260507003909 | 45 | 6 | 0.0 | 2.0 | 0.00 | 0.00 | 0.00 | 95 | 1016.7 |
| 20260507003709 | 45 | 9 | 1.0 | 2.0 | 0.00 | 0.00 | 0.00 | 95 | 1016.8 |
| 20260507003508 | 45 | 10 | 2.0 | 2.0 | 0.00 | 0.00 | 0.00 | 95 | 1016.7 |
| 20260507003309 | 45 | 31 | 0.0 | 2.0 | 0.00 | 0.00 | 0.00 | 96 | 1016.8 |
| 20260507003108 | 45 | 2 | 0.0 | 2.0 | 0.00 | 0.00 | 0.00 | 96 | 1016.7 |
| 20260507002909 | 45 | 11 | 0.0 | 2.0 | 0.00 | 0.00 | 0.00 | 96 | 1016.8 |
| 20260507002709 | 45 | 2 | 2.0 | 2.0 | 0.00 | 0.00 | 0.00 | 96 | 1016.7 |
| 20260507002508 | 45 | 13 | 2.0 | 2.0 | 0.00 | 0.00 | 0.00 | 96 | 1017.1 |
| 20260507002308 | 45 | 359 | 1.0 | 2.0 | 0.00 | 0.00 | 0.00 | 96 | 1016.7 |
| 20260507002108 | 45 | 11 | 1.0 | 2.0 | 0.00 | 0.00 | 0.00 | 96 | 1016.7 |
| 20260507001908 | 45 | 7 | 1.0 | 2.0 | 0.00 | 0.00 | 0.00 | 96 | 1016.8 |
| 20260507001708 | 45 | 19 | 1.0 | 2.0 | 0.00 | 0.00 | 0.00 | 96 | 1016.8 |
| 20260507001508 | 45 | 355 | 0.0 | 2.0 | 0.00 | 0.00 | 0.00 | 96 | 1017.0 |
| 20260507001308 | 45 | 333 | 2.0 | 2.0 | 0.00 | 0.00 | 0.00 | 96 | 1017.0 |
| 20260507001109 | 46 | 318 | 0.0 | 2.0 | 0.00 | 0.00 | 0.00 | 96 | 1017.0 |
| 20260507000908 | 46 | 3 | 2.0 | 2.0 | 0.00 | 0.00 | 0.00 | 96 | 1017.0 |
| 20260507000708 | 46 | 40 | 0.0 | 2.0 | 0.00 | 0.00 | 0.00 | 95 | 1016.8 |
| 20260507000508 | 46 | 17 | 1.0 | 2.0 | 0.00 | 0.00 | 0.00 | 95 | 1016.8 |
| 20260507000308 | 46 | 35 | 0.0 | 2.0 | 0.00 | 0.00 | 0.00 | 95 | 1017.1 |
| 20260507000109 | 46 | 60 | 2.0 | 2.0 | 0.00 | 0.00 | 0.00 | 95 | 1017.0 |
| 20260506235908 | 46 | 13 | 1.0 | 2.0 | 0.00 | 0.00 | 0.00 | 95 | 1017.1 |
| 20260506235806 | 46 | 25 | 0.0 | 2.0 | 0.00 | 0.00 | 0.00 | 95 | 1017.2 |
| 20260506235713 | 46 | 25 | 0.0 | 2.0 | 0.00 | 0.00 | 0.00 | 95 | 1017.2 |
| 20260506235508 | 46 | 7 | 0.0 | 2.0 | 0.00 | 0.00 | 0.00 | 95 | 1017.0 |
| 20260506235308 | 46 | 30 | 1.0 | 2.0 | 0.00 | 0.00 | 0.00 | 95 | 1017.0 |
| 20260506235109 | 46 | 45 | 1.0 | 2.0 | 0.00 | 0.00 | 0.00 | 95 | 1017.0 |
| 20260506234908 | 46 | 355 | 0.0 | 2.0 | 0.00 | 0.00 | 0.00 | 95 | 1017.0 |
| 20260506234709 | 46 | 7 | 0.0 | 2.0 | 0.00 | 0.00 | 0.00 | 95 | 1017.1 |
| 20260506234508 | 46 | 11 | 2.0 | 2.0 | 0.00 | 0.00 | 0.00 | 94 | 1017.1 |
| 20260506234308 | 46 | 356 | 1.0 | 2.0 | 0.00 | 0.00 | 0.00 | 94 | 1016.8 |
| 20260506234109 | 47 | 350 | 0.0 | 2.0 | 0.00 | 0.00 | 0.00 | 94 | 1017.1 |
| 20260506233908 | 47 | 30 | 0.0 | 2.0 | 0.00 | 0.00 | 0.00 | 94 | 1017.1 |
| 20260506233708 | 47 | 7 | 1.0 | 2.0 | 0.00 | 0.00 | 0.00 | 94 | 1017.2 |
| 20260506233509 | 47 | 335 | 0.0 | 2.0 | 0.00 | 0.00 | 0.00 | 94 | 1017.2 |
| 20260506233309 | 47 | 16 | 0.0 | 2.0 | 0.00 | 0.00 | 0.00 | 94 | 1017.1 |
| 20260506233109 | 47 | 329 | 0.0 | 2.0 | 0.00 | 0.00 | 0.00 | 93 | 1017.0 |
| 20260506232909 | 47 | 31 | 1.0 | 3.0 | 0.00 | 0.00 | 0.00 | 93 | 1017.2 |
| 20260506232709 | 47 | 126 | 0.0 | 3.0 | 0.00 | 0.00 | 0.00 | 93 | 1017.1 |
| 20260506232508 | 48 | 16 | 1.0 | 3.0 | 0.00 | 0.00 | 0.00 | 92 | 1017.3 |
| 20260506232309 | 48 | 328 | 0.0 | 3.0 | 0.00 | 0.00 | 0.00 | 92 | 1017.2 |
| 20260506232108 | 48 | 329 | 2.0 | 3.0 | 0.00 | 0.00 | 0.00 | 92 | 1017.2 |
| 20260506231908 | 48 | 7 | 0.0 | 2.0 | 0.00 | 0.00 | 0.00 | 92 | 1017.1 |
| 20260506231708 | 48 | 35 | 0.0 | 2.0 | 0.00 | 0.00 | 0.00 | 92 | 1017.2 |
| 20260506231508 | 48 | 27 | 2.0 | 3.0 | 0.00 | 0.00 | 0.00 | 92 | 1017.2 |
| 20260506231310 | 48 | 332 | 0.0 | 3.0 | 0.00 | 0.00 | 0.00 | 92 | 1017.3 |
| 20260506231109 | 48 | 337 | 2.0 | 3.0 | 0.00 | 0.00 | 0.00 | 93 | 1017.2 |
| 20260506230910 | 48 | 332 | 0.0 | 3.0 | 0.00 | 0.00 | 0.00 | 93 | 1017.1 |
| 20260506230709 | 48 | 341 | 2.0 | 3.0 | 0.00 | 0.00 | 0.00 | 93 | 1017.2 |
| 20260506230509 | 48 | 46 | 1.0 | 2.0 | 0.00 | 0.00 | 0.00 | 93 | 1017.3 |
| 20260506230308 | 48 | 357 | 0.0 | 2.0 | 0.00 | 0.00 | 0.00 | 93 | 1017.0 |
| 20260506230107 | 48 | 319 | 1.0 | 2.0 | 0.00 | 0.00 | 0.00 | 94 | 1017.3 |
| 20260506225908 | 48 | 336 | 2.0 | 2.0 | 0.00 | 0.00 | 0.00 | 94 | 1017.3 |
| 20260506225708 | 48 | 328 | 0.0 | 2.0 | 0.00 | 0.00 | 0.00 | 94 | 1017.2 |
| 20260506225507 | 48 | 0 | 0.0 | 2.0 | 0.00 | 0.00 | 0.00 | 94 | 1017.2 |
| 20260506225307 | 48 | 335 | 0.0 | 2.0 | 0.00 | 0.00 | 0.00 | 94 | 1017.2 |
| 20260506225107 | 48 | 16 | 0.0 | 2.0 | 0.00 | 0.00 | 0.00 | 94 | 1017.4 |
| 20260506224907 | 48 | 19 | 0.0 | 2.0 | 0.00 | 0.00 | 0.00 | 94 | 1017.3 |
| 20260506224708 | 48 | 14 | 1.0 | 2.0 | 0.00 | 0.00 | 0.00 | 94 | 1017.4 |
| 20260506224508 | 48 | 14 | 2.0 | 2.0 | 0.00 | 0.00 | 0.00 | 94 | 1017.3 |
| 20260506224308 | 48 | 332 | 0.0 | 2.0 | 0.00 | 0.00 | 0.00 | 93 | 1017.3 |
| 20260506224107 | 48 | 328 | 0.0 | 2.0 | 0.00 | 0.00 | 0.00 | 93 | 1017.2 |
| 20260506223907 | 48 | 27 | 0.0 | 2.0 | 0.00 | 0.00 | 0.00 | 93 | 1017.3 |
| 20260506223707 | 48 | 9 | 0.0 | 2.0 | 0.00 | 0.00 | 0.00 | 93 | 1017.3 |
| 20260506223507 | 48 | 355 | 0.0 | 2.0 | 0.00 | 0.00 | 0.00 | 93 | 1017.5 |
| 20260506223307 | 48 | 350 | 0.0 | 2.0 | 0.00 | 0.00 | 0.00 | 93 | 1017.5 |
| 20260506223108 | 48 | 33 | 1.0 | 3.0 | 0.00 | 0.00 | 0.00 | 93 | 1017.3 |
| 20260506222907 | 48 | 34 | 0.0 | 3.0 | 0.00 | 0.00 | 0.00 | 93 | 1017.3 |
| 20260506222707 | 48 | 32 | 0.0 | 3.0 | 0.00 | 0.00 | 0.00 | 92 | 1017.5 |
| 20260506222507 | 49 | 14 | 0.0 | 3.0 | 0.00 | 0.00 | 0.00 | 92 | 1017.5 |
| 20260506222308 | 49 | 323 | 1.0 | 3.0 | 0.00 | 0.00 | 0.00 | 92 | 1017.3 |
| 20260506222107 | 49 | 254 | 0.0 | 2.0 | 0.00 | 0.00 | 0.00 | 92 | 1017.4 |
| 20260506221907 | 49 | 323 | 1.0 | 2.0 | 0.00 | 0.00 | 0.00 | 92 | 1017.5 |
| 20260506221708 | 49 | 21 | 2.0 | 2.0 | 0.00 | 0.00 | 0.00 | 91 | 1017.5 |
| 20260506221507 | 49 | 2 | 1.0 | 2.0 | 0.00 | 0.00 | 0.00 | 91 | 1017.5 |
| 20260506221307 | 49 | 0 | 1.0 | 2.0 | 0.00 | 0.00 | 0.00 | 90 | 1017.4 |
| 20260506221107 | 49 | 9 | 1.0 | 2.0 | 0.00 | 0.00 | 0.00 | 90 | 1017.5 |
| 20260506220907 | 49 | 66 | 1.0 | 2.0 | 0.00 | 0.00 | 0.00 | 90 | 1017.5 |
| 20260506220707 | 49 | 319 | 0.0 | 2.0 | 0.00 | 0.00 | 0.00 | 89 | 1017.5 |
| 20260506220508 | 49 | 37 | 0.0 | 2.0 | 0.00 | 0.00 | 0.00 | 89 | 1017.4 |
| 20260506220308 | 50 | 178 | 0.0 | 2.0 | 0.00 | 0.00 | 0.00 | 88 | 1017.5 |
| 20260506220107 | 50 | 103 | 0.0 | 3.0 | 0.00 | 0.00 | 0.00 | 87 | 1017.5 |
| 20260506215907 | 51 | 161 | 0.0 | 3.0 | 0.00 | 0.00 | 0.00 | 86 | 1017.5 |
| 20260506215708 | 51 | 120 | 1.0 | 3.0 | 0.00 | 0.00 | 0.00 | 85 | 1017.4 |
| 20260506215507 | 52 | 338 | 0.0 | 3.0 | 0.00 | 0.00 | 0.00 | 85 | 1017.5 |
| 20260506215307 | 52 | 56 | 1.0 | 3.0 | 0.00 | 0.00 | 0.00 | 85 | 1017.5 |
| 20260506215107 | 51 | 50 | 0.0 | 2.0 | 0.00 | 0.00 | 0.00 | 85 | 1017.6 |
| 20260506214907 | 52 | 95 | 2.0 | 2.0 | 0.00 | 0.00 | 0.00 | 84 | 1017.4 |
| 20260506214707 | 52 | 32 | 1.0 | 2.0 | 0.00 | 0.00 | 0.00 | 84 | 1017.4 |
| 20260506214507 | 52 | 77 | 0.0 | 2.0 | 0.00 | 0.00 | 0.00 | 83 | 1017.5 |
| 20260506214308 | 52 | 99 | 1.0 | 3.0 | 0.00 | 0.00 | 0.00 | 83 | 1017.5 |
| 20260506214108 | 52 | 345 | 0.0 | 3.0 | 0.00 | 0.00 | 0.00 | 83 | 1017.5 |
| 20260506213907 | 52 | 315 | 0.0 | 3.0 | 0.00 | 0.00 | 0.00 | 83 | 1017.4 |
| 20260506213707 | 52 | 354 | 0.0 | 3.0 | 0.00 | 0.00 | 0.00 | 83 | 1017.7 |
| 20260506213508 | 52 | 79 | 1.0 | 3.0 | 0.00 | 0.00 | 0.00 | 83 | 1017.7 |
| 20260506213307 | 52 | 49 | 0.0 | 2.0 | 0.00 | 0.00 | 0.00 | 84 | 1017.6 |
| 20260506213107 | 52 | 5 | 0.0 | 2.0 | 0.00 | 0.00 | 0.00 | 84 | 1017.7 |
| 20260506212907 | 52 | 12 | 0.0 | 2.0 | 0.00 | 0.00 | 0.00 | 84 | 1017.5 |
| 20260506212707 | 52 | 31 | 0.0 | 2.0 | 0.00 | 0.00 | 0.00 | 84 | 1017.6 |
| 20260506212507 | 52 | 44 | 0.0 | 2.0 | 0.00 | 0.00 | 0.00 | 84 | 1017.6 |
| 20260506212309 | 52 | 308 | 1.0 | 2.0 | 0.00 | 0.00 | 0.00 | 84 | 1017.5 |
| 20260506212108 | 52 | 242 | 0.0 | 2.0 | 0.00 | 0.00 | 0.00 | 84 | 1017.6 |
| 20260506211908 | 53 | 318 | 0.0 | 2.0 | 0.00 | 0.00 | 0.00 | 83 | 1017.6 |
| 20260506211708 | 53 | 147 | 1.0 | 2.0 | 0.00 | 0.00 | 0.00 | 83 | 1017.7 |
| 20260506211507 | 53 | 71 | 0.0 | 2.0 | 0.00 | 0.00 | 0.00 | 82 | 1017.5 |
| 20260506211107 | 53 | 66 | 0.0 | 2.0 | 0.00 | 0.00 | 0.00 | 81 | 1017.5 |
| 20260506210907 | 53 | 303 | 1.0 | 2.0 | 0.00 | 0.00 | 0.00 | 81 | 1017.6 |
| 20260506210707 | 54 | 325 | 0.0 | 2.0 | 0.00 | 0.00 | 0.00 | 79 | 1017.6 |
| 20260506210507 | 54 | 347 | 0.0 | 3.0 | 0.00 | 0.00 | 0.00 | 79 | 1017.4 |
| 20260506210308 | 54 | 11 | 0.0 | 3.0 | 0.00 | 0.00 | 0.00 | 79 | 1017.7 |
| 20260506210108 | 54 | 31 | 0.0 | 3.0 | 0.00 | 0.00 | 0.00 | 79 | 1017.5 |
| 20260506205907 | 54 | 61 | 0.0 | 3.0 | 0.00 | 0.00 | 0.00 | 79 | 1017.5 |
| 20260506205707 | 54 | 58 | 2.0 | 3.0 | 0.00 | 0.00 | 0.00 | 79 | 1017.6 |
| 20260506205507 | 53 | 42 | 2.0 | 2.0 | 0.00 | 0.00 | 0.00 | 81 | 1017.5 |
| 20260506205308 | 53 | 328 | 1.0 | 2.0 | 0.00 | 0.00 | 0.00 | 83 | 1017.5 |
| 20260506205108 | 53 | 44 | 0.0 | 2.0 | 0.00 | 0.00 | 0.00 | 83 | 1017.4 |
| 20260506204907 | 53 | 132 | 0.0 | 2.0 | 0.00 | 0.00 | 0.00 | 83 | 1017.6 |
| 20260506204708 | 54 | 180 | 0.0 | 2.0 | 0.00 | 0.00 | 0.00 | 82 | 1017.7 |
| 20260506204507 | 54 | 159 | 1.0 | 2.0 | 0.00 | 0.00 | 0.00 | 82 | 1017.5 |
| 20260506204307 | 54 | 143 | 1.0 | 2.0 | 0.00 | 0.00 | 0.00 | 81 | 1017.6 |
| 20260506204109 | 55 | 121 | 2.0 | 2.0 | 0.00 | 0.00 | 0.00 | 80 | 1017.4 |
| 20260506203908 | 55 | 87 | 0.0 | 1.0 | 0.00 | 0.00 | 0.00 | 80 | 1017.2 |
| 20260506203708 | 55 | 352 | 0.0 | 1.0 | 0.00 | 0.00 | 0.00 | 80 | 1017.5 |
| 20260506203507 | 55 | 227 | 0.0 | 1.0 | 0.00 | 0.00 | 0.00 | 79 | 1017.7 |
| 20260506203307 | 55 | 357 | 0.0 | 2.0 | 0.00 | 0.00 | 0.00 | 79 | 1017.5 |
| 20260506203108 | 55 | 304 | 0.0 | 2.0 | 0.00 | 0.00 | 0.00 | 79 | 1017.6 |
| 20260506202907 | 55 | 336 | 0.0 | 2.0 | 0.00 | 0.00 | 0.00 | 79 | 1017.5 |
| 20260506202707 | 56 | 205 | 0.0 | 2.0 | 0.00 | 0.00 | 0.00 | 78 | 1017.7 |
| 20260506202507 | 56 | 242 | 0.0 | 2.0 | 0.00 | 0.00 | 0.00 | 77 | 1017.6 |
| 20260506202307 | 57 | 159 | 0.0 | 2.0 | 0.00 | 0.00 | 0.00 | 76 | 1017.5 |
| 20260506202107 | 57 | 202 | 0.0 | 2.0 | 0.00 | 0.00 | 0.00 | 73 | 1017.6 |
| 20260506201907 | 57 | 58 | 0.0 | 2.0 | 0.00 | 0.00 | 0.00 | 72 | 1017.7 |
| 20260506201707 | 58 | 25 | 0.0 | 2.0 | 0.00 | 0.00 | 0.00 | 71 | 1017.4 |
| 20260506201507 | 58 | 45 | 2.0 | 2.0 | 0.00 | 0.00 | 0.00 | 71 | 1017.3 |
| 20260506201307 | 58 | 55 | 0.0 | 2.0 | 0.00 | 0.00 | 0.00 | 71 | 1017.5 |
| 20260506201108 | 58 | 44 | 0.0 | 2.0 | 0.00 | 0.00 | 0.00 | 71 | 1017.4 |
| 20260506200907 | 58 | 180 | 0.0 | 2.0 | 0.00 | 0.00 | 0.00 | 71 | 1017.3 |
| 20260506200707 | 58 | 35 | 0.0 | 2.0 | 0.00 | 0.00 | 0.00 | 71 | 1017.4 |
| 20260506200508 | 58 | 92 | 0.0 | 2.0 | 0.00 | 0.00 | 0.00 | 71 | 1017.4 |
| 20260506200308 | 58 | 100 | 0.0 | 2.0 | 0.00 | 0.00 | 0.00 | 71 | 1017.3 |
| 20260506200108 | 58 | 333 | 0.0 | 2.0 | 0.00 | 0.00 | 0.00 | 71 | 1017.3 |
| 20260506195908 | 59 | 59 | 0.0 | 2.0 | 0.00 | 0.00 | 0.00 | 70 | 1017.4 |
| 20260506195707 | 59 | 34 | 0.0 | 2.0 | 0.00 | 0.00 | 0.00 | 69 | 1017.4 |
| 20260506195507 | 59 | 32 | 0.0 | 2.0 | 0.00 | 0.00 | 0.00 | 70 | 1017.3 |
| 20260506195308 | 59 | 31 | 0.0 | 2.0 | 0.00 | 0.00 | 0.00 | 69 | 1017.4 |
| 20260506195107 | 59 | 348 | 0.0 | 2.0 | 0.00 | 0.00 | 0.00 | 69 | 1017.5 |
| 20260506194907 | 59 | 32 | 0.0 | 2.0 | 0.00 | 0.00 | 0.00 | 70 | 1017.4 |
| 20260506194708 | 59 | 104 | 0.0 | 3.0 | 0.00 | 0.00 | 0.00 | 70 | 1017.5 |
| 20260506194507 | 59 | 64 | 1.0 | 3.0 | 0.00 | 0.00 | 0.00 | 69 | 1017.2 |
| 20260506194309 | 59 | 29 | 0.0 | 3.0 | 0.00 | 0.00 | 0.00 | 69 | 1017.2 |
| 20260506194108 | 59 | 12 | 2.0 | 3.0 | 0.00 | 0.00 | 0.00 | 69 | 1017.3 |
| 20260506193908 | 59 | 28 | 1.0 | 3.0 | 0.00 | 0.00 | 0.00 | 68 | 1017.1 |
| 20260506193707 | 60 | 14 | 0.0 | 3.0 | 0.00 | 0.00 | 0.00 | 69 | 1017.3 |
| 20260506193508 | 60 | 65 | 0.0 | 3.0 | 0.00 | 0.00 | 0.00 | 68 | 1017.2 |
| 20260506193308 | 60 | 60 | 0.0 | 3.0 | 0.00 | 0.00 | 0.00 | 68 | 1017.3 |
| 20260506193108 | 60 | 58 | 0.0 | 3.0 | 0.00 | 0.00 | 0.00 | 68 | 1017.3 |
| 20260506192908 | 60 | 140 | 0.0 | 3.0 | 0.00 | 0.00 | 0.00 | 68 | 1017.2 |
| 20260506192708 | 60 | 56 | 1.0 | 4.0 | 0.00 | 0.00 | 0.00 | 68 | 1017.2 |
| 20260506192507 | 60 | 38 | 0.0 | 4.0 | 0.00 | 0.00 | 0.00 | 68 | 1017.4 |
| 20260506192307 | 60 | 45 | 1.0 | 4.0 | 0.00 | 0.00 | 0.00 | 68 | 1017.1 |
| 20260506192107 | 60 | 3 | 2.0 | 4.0 | 0.00 | 0.00 | 0.00 | 68 | 1017.0 |
| 20260506191907 | 60 | 44 | 2.0 | 4.0 | 0.00 | 0.00 | 0.00 | 68 | 1017.2 |
| 20260506191708 | 60 | 12 | 1.0 | 3.0 | 0.00 | 0.00 | 0.00 | 68 | 1017.0 |
| 20260506191507 | 60 | 38 | 2.0 | 3.0 | 0.00 | 0.00 | 0.00 | 68 | 1017.2 |
| 20260506191307 | 60 | 1 | 3.0 | 3.0 | 0.00 | 0.00 | 0.00 | 68 | 1017.0 |
| 20260506191107 | 61 | 58 | 0.0 | 3.0 | 0.00 | 0.00 | 0.00 | 68 | 1017.0 |
| 20260506190907 | 61 | 8 | 1.0 | 3.0 | 0.00 | 0.00 | 0.00 | 67 | 1016.6 |
| 20260506190707 | 61 | 73 | 3.0 | 3.0 | 0.00 | 0.00 | 0.00 | 67 | 1016.7 |
| 20260506190507 | 61 | 27 | 1.0 | 3.0 | 0.00 | 0.00 | 0.00 | 67 | 1016.7 |
| 20260506190307 | 61 | 13 | 2.0 | 3.0 | 0.00 | 0.00 | 0.00 | 67 | 1017.1 |
| 20260506190107 | 61 | 19 | 2.0 | 3.0 | 0.00 | 0.00 | 0.00 | 68 | 1017.1 |
| 20260506185907 | 61 | 23 | 1.0 | 4.0 | 0.00 | 0.00 | 0.00 | 68 | 1017.0 |
| 20260506185709 | 61 | 40 | 0.0 | 4.0 | 0.00 | 0.00 | 0.00 | 68 | 1016.7 |
| 20260506185507 | 61 | 17 | 2.0 | 4.0 | 0.00 | 0.00 | 0.00 | 68 | 1016.7 |
| 20260506185308 | 61 | 22 | 1.0 | 4.0 | 0.00 | 0.00 | 0.00 | 68 | 1016.8 |
| 20260506185108 | 61 | 50 | 1.0 | 4.0 | 0.00 | 0.00 | 0.00 | 67 | 1016.8 |
| 20260506184907 | 61 | 51 | 1.0 | 4.0 | 0.00 | 0.00 | 0.00 | 68 | 1016.6 |
| 20260506184707 | 62 | 58 | 0.0 | 4.0 | 0.00 | 0.00 | 0.00 | 68 | 1017.0 |
| 20260506184507 | 62 | 66 | 1.0 | 4.0 | 0.00 | 0.00 | 0.00 | 67 | 1016.6 |
| 20260506184307 | 62 | 13 | 2.0 | 4.0 | 0.00 | 0.00 | 0.00 | 66 | 1016.8 |
| 20260506184107 | 62 | 22 | 3.0 | 4.0 | 0.00 | 0.00 | 0.00 | 66 | 1016.6 |
| 20260506183907 | 62 | 20 | 2.0 | 4.0 | 0.00 | 0.00 | 0.00 | 66 | 1016.6 |
| 20260506183709 | 62 | 81 | 0.0 | 4.0 | 0.00 | 0.00 | 0.00 | 66 | 1016.5 |
| 20260506183509 | 62 | 42 | 3.0 | 4.0 | 0.00 | 0.00 | 0.00 | 66 | 1016.7 |
| 20260506183307 | 62 | 36 | 2.0 | 4.0 | 0.00 | 0.00 | 0.00 | 66 | 1016.3 |
| 20260506183108 | 62 | 34 | 2.0 | 4.0 | 0.00 | 0.00 | 0.00 | 66 | 1016.4 |
| 20260506182908 | 62 | 4 | 1.0 | 5.0 | 0.00 | 0.00 | 0.00 | 66 | 1016.4 |
| 20260506182707 | 63 | 10 | 2.0 | 5.0 | 0.00 | 0.00 | 0.00 | 66 | 1016.6 |
| 20260506182507 | 63 | 38 | 2.0 | 5.0 | 0.00 | 0.00 | 0.00 | 66 | 1016.4 |
| 20260506182308 | 63 | 31 | 1.0 | 5.0 | 0.00 | 0.00 | 0.00 | 65 | 1016.3 |
| 20260506182107 | 63 | 6 | 1.0 | 5.0 | 0.00 | 0.00 | 0.00 | 65 | 1016.2 |
| 20260506181908 | 63 | 73 | 2.0 | 5.0 | 0.00 | 0.00 | 0.00 | 66 | 1016.2 |
| 20260506181708 | 63 | 25 | 2.0 | 5.0 | 0.00 | 0.00 | 0.00 | 66 | 1016.1 |
| 20260506181508 | 63 | 16 | 4.0 | 5.0 | 0.00 | 0.00 | 0.00 | 66 | 1016.4 |
| 20260506181307 | 63 | 21 | 2.0 | 5.0 | 0.00 | 0.00 | 0.00 | 66 | 1016.3 |
| 20260506181107 | 63 | 23 | 2.0 | 4.0 | 0.00 | 0.00 | 0.00 | 66 | 1016.1 |
| 20260506180907 | 63 | 38 | 2.0 | 4.0 | 0.00 | 0.00 | 0.00 | 66 | 1016.2 |
| 20260506180707 | 64 | 7 | 2.0 | 5.0 | 0.00 | 0.00 | 0.00 | 65 | 1015.9 |
| 20260506180507 | 64 | 24 | 2.0 | 5.0 | 0.00 | 0.00 | 0.00 | 65 | 1016.1 |
| 20260506180307 | 64 | 12 | 2.0 | 5.0 | 0.00 | 0.00 | 0.00 | 65 | 1015.8 |
| 20260506180108 | 64 | 34 | 2.0 | 5.0 | 0.00 | 0.00 | 0.00 | 64 | 1016.0 |
| 20260506175907 | 64 | 38 | 4.0 | 5.0 | 0.00 | 0.00 | 0.00 | 64 | 1016.0 |
| 20260506175707 | 64 | 34 | 2.0 | 5.0 | 0.00 | 0.00 | 0.00 | 64 | 1016.1 |
| 20260506175507 | 64 | 26 | 4.0 | 4.0 | 0.00 | 0.00 | 0.00 | 64 | 1015.9 |
| 20260506175306 | 64 | 20 | 2.0 | 4.0 | 0.00 | 0.00 | 0.00 | 64 | 1015.8 |
| 20260506175105 | 64 | 8 | 2.0 | 4.0 | 0.00 | 0.00 | 0.00 | 64 | 1015.8 |
| 20260506174905 | 65 | 27 | 2.0 | 5.0 | 0.00 | 0.00 | 0.00 | 63 | 1015.7 |
| 20260506174705 | 65 | 21 | 2.0 | 5.0 | 0.00 | 0.00 | 0.00 | 63 | 1015.7 |
| 20260506174505 | 65 | 18 | 3.0 | 5.0 | 0.00 | 0.00 | 0.00 | 63 | 1015.6 |
| 20260506174305 | 65 | 20 | 1.0 | 6.0 | 0.00 | 0.00 | 0.00 | 63 | 1015.6 |
| 20260506174106 | 65 | 26 | 3.0 | 6.0 | 0.00 | 0.00 | 0.00 | 63 | 1015.5 |
| 20260506173905 | 65 | 310 | 0.0 | 6.0 | 0.00 | 0.00 | 0.00 | 63 | 1015.6 |
| 20260506173705 | 66 | 32 | 1.0 | 6.0 | 0.00 | 0.00 | 0.00 | 62 | 1015.6 |
| 20260506173505 | 66 | 0 | 2.0 | 6.0 | 0.00 | 0.00 | 0.00 | 62 | 1015.4 |
| 20260506173106 | 66 | 26 | 2.0 | 7.0 | 0.00 | 0.00 | 0.00 | 61 | 1015.4 |
| 20260506172905 | 66 | 66 | 0.0 | 7.0 | 0.00 | 0.00 | 0.00 | 61 | 1015.3 |
| 20260506172705 | 66 | 18 | 1.0 | 7.0 | 0.00 | 0.00 | 0.00 | 60 | 1015.4 |
| 20260506172506 | 67 | 25 | 3.0 | 7.0 | 0.00 | 0.00 | 0.00 | 61 | 1015.3 |
| 20260506172307 | 67 | 13 | 2.0 | 7.0 | 0.00 | 0.00 | 0.00 | 61 | 1015.4 |
| 20260506172105 | 67 | 11 | 3.0 | 6.0 | 0.00 | 0.00 | 0.00 | 60 | 1015.5 |
| 20260506171906 | 67 | 54 | 2.0 | 5.0 | 0.00 | 0.00 | 0.00 | 60 | 1015.5 |
| 20260506171705 | 67 | 27 | 2.0 | 6.0 | 0.00 | 0.00 | 0.00 | 60 | 1015.4 |
| 20260506171505 | 67 | 4 | 3.0 | 6.0 | 0.00 | 0.00 | 0.00 | 60 | 1015.4 |
| 20260506171305 | 67 | 339 | 2.0 | 6.0 | 0.00 | 0.00 | 0.00 | 60 | 1015.5 |
| 20260506171106 | 67 | 353 | 2.0 | 6.0 | 0.00 | 0.00 | 0.00 | 59 | 1015.3 |
| 20260506170905 | 68 | 23 | 2.0 | 6.0 | 0.00 | 0.00 | 0.00 | 59 | 1015.3 |
| 20260506170706 | 68 | 14 | 4.0 | 6.0 | 0.00 | 0.00 | 0.00 | 59 | 1015.2 |
| 20260506170505 | 68 | 336 | 2.0 | 6.0 | 0.00 | 0.00 | 0.00 | 58 | 1015.2 |
| 20260506170305 | 68 | 31 | 3.0 | 7.0 | 0.00 | 0.00 | 0.00 | 58 | 1015.1 |
| 20260506170106 | 69 | 45 | 3.0 | 7.0 | 0.00 | 0.00 | 0.00 | 57 | 1015.1 |
| 20260506165906 | 69 | 38 | 0.0 | 7.0 | 0.00 | 0.00 | 0.00 | 58 | 1015.2 |
| 20260506165705 | 69 | 60 | 1.0 | 7.0 | 0.00 | 0.00 | 0.00 | 57 | 1015.3 |
| 20260506165506 | 69 | 18 | 2.0 | 7.0 | 0.00 | 0.00 | 0.00 | 56 | 1015.2 |
| 20260506165306 | 70 | 11 | 3.0 | 5.0 | 0.00 | 0.00 | 0.00 | 56 | 1015.2 |
| 20260506165106 | 70 | 19 | 2.0 | 5.0 | 0.00 | 0.00 | 0.00 | 55 | 1015.0 |
| 20260506164906 | 70 | 11 | 2.0 | 6.0 | 0.00 | 0.00 | 0.00 | 55 | 1015.1 |
| 20260506164706 | 70 | 36 | 3.0 | 6.0 | 0.00 | 0.00 | 0.00 | 54 | 1015.1 |
| 20260506164506 | 70 | 7 | 2.0 | 6.0 | 0.00 | 0.00 | 0.00 | 53 | 1015.0 |
| 20260506164305 | 71 | 24 | 2.0 | 6.0 | 0.00 | 0.00 | 0.00 | 53 | 1015.1 |
| 20260506164106 | 71 | 81 | 2.0 | 6.0 | 0.00 | 0.00 | 0.00 | 53 | 1015.1 |
| 20260506163910 | 71 | 5 | 2.0 | 6.0 | 0.00 | 0.00 | 0.00 | 53 | 1015.1 |
| 20260506163705 | 71 | 76 | 1.0 | 7.0 | 0.00 | 0.00 | 0.00 | 52 | 1014.9 |
| 20260506163506 | 71 | 62 | 5.0 | 7.0 | 0.00 | 0.00 | 0.00 | 51 | 1015.2 |
| 20260506163306 | 72 | 29 | 3.0 | 7.0 | 0.00 | 0.00 | 0.00 | 50 | 1014.9 |
| 20260506163105 | 72 | 11 | 2.0 | 7.0 | 0.00 | 0.00 | 0.00 | 51 | 1014.8 |
| 20260506162905 | 72 | 5 | 2.0 | 7.0 | 0.00 | 0.00 | 0.00 | 50 | 1014.8 |
| 20260506162705 | 72 | 26 | 4.0 | 7.0 | 0.00 | 0.00 | 0.00 | 49 | 1015.0 |
| 20260506162506 | 72 | 356 | 3.0 | 7.0 | 0.00 | 0.00 | 0.00 | 49 | 1015.0 |
| 20260506162307 | 72 | 21 | 3.0 | 7.0 | 0.00 | 0.00 | 0.00 | 49 | 1014.8 |
| 20260506162105 | 73 | 41 | 3.0 | 7.0 | 0.00 | 0.00 | 0.00 | 49 | 1015.1 |
| 20260506161906 | 73 | 16 | 2.0 | 7.0 | 0.00 | 0.00 | 0.00 | 48 | 1014.8 |
| 20260506161706 | 73 | 38 | 4.0 | 7.0 | 0.00 | 0.00 | 0.00 | 48 | 1014.7 |
| 20260506161505 | 73 | 35 | 2.0 | 7.0 | 0.00 | 0.00 | 0.00 | 49 | 1014.9 |
| 20260506161305 | 73 | 32 | 1.0 | 7.0 | 0.00 | 0.00 | 0.00 | 49 | 1014.7 |
| 20260506161105 | 73 | 26 | 3.0 | 7.0 | 0.00 | 0.00 | 0.00 | 49 | 1014.8 |
| 20260506160906 | 73 | 10 | 2.0 | 5.0 | 0.00 | 0.00 | 0.00 | 49 | 1015.0 |
| 20260506160707 | 73 | 355 | 2.0 | 5.0 | 0.00 | 0.00 | 0.00 | 49 | 1014.7 |
| 20260506160506 | 73 | 0 | 2.0 | 5.0 | 0.00 | 0.00 | 0.00 | 49 | 1014.7 |
| 20260506160306 | 73 | 6 | 1.0 | 5.0 | 0.00 | 0.00 | 0.00 | 49 | 1014.7 |
| 20260506160106 | 74 | 1 | 3.0 | 5.0 | 0.00 | 0.00 | 0.00 | 48 | 1014.7 |
| 20260506155906 | 74 | 25 | 3.0 | 5.0 | 0.00 | 0.00 | 0.00 | 49 | 1014.8 |
| 20260506155706 | 74 | 14 | 4.0 | 5.0 | 0.00 | 0.00 | 0.00 | 49 | 1014.9 |
| 20260506155506 | 74 | 174 | 2.0 | 7.0 | 0.00 | 0.00 | 0.00 | 49 | 1014.8 |
| 20260506155308 | 74 | 61 | 2.0 | 7.0 | 0.00 | 0.00 | 0.00 | 49 | 1014.8 |
| 20260506155107 | 74 | 13 | 4.0 | 7.0 | 0.00 | 0.00 | 0.00 | 48 | 1014.6 |
| 20260506154906 | 74 | 46 | 5.0 | 7.0 | 0.00 | 0.00 | 0.00 | 48 | 1014.8 |
| 20260506154706 | 74 | 12 | 2.0 | 7.0 | 0.00 | 0.00 | 0.00 | 47 | 1014.8 |
| 20260506154505 | 74 | 0 | 5.0 | 7.0 | 0.00 | 0.00 | 0.00 | 46 | 1014.8 |
| 20260506154305 | 74 | 2 | 5.0 | 7.0 | 0.00 | 0.00 | 0.00 | 46 | 1014.6 |
| 20260506154105 | 74 | 21 | 2.0 | 7.0 | 0.00 | 0.00 | 0.00 | 46 | 1014.4 |
| 20260506153905 | 74 | 356 | 2.0 | 7.0 | 0.00 | 0.00 | 0.00 | 47 | 1014.7 |
| 20260506153705 | 75 | 8 | 1.0 | 7.0 | 0.00 | 0.00 | 0.00 | 47 | 1014.7 |
| 20260506153505 | 75 | 4 | 2.0 | 6.0 | 0.00 | 0.00 | 0.00 | 45 | 1014.6 |
| 20260506153305 | 75 | 2 | 2.0 | 6.0 | 0.00 | 0.00 | 0.00 | 45 | 1014.7 |
| 20260506153105 | 75 | 349 | 3.0 | 6.0 | 0.00 | 0.00 | 0.00 | 45 | 1014.6 |
| 20260506152906 | 75 | 44 | 3.0 | 6.0 | 0.00 | 0.00 | 0.00 | 45 | 1014.8 |
| 20260506152706 | 75 | 286 | 2.0 | 6.0 | 0.00 | 0.00 | 0.00 | 46 | 1014.6 |
| 20260506152507 | 75 | 33 | 3.0 | 6.0 | 0.00 | 0.00 | 0.00 | 45 | 1014.8 |
| 20260506152306 | 75 | 21 | 2.0 | 8.0 | 0.00 | 0.00 | 0.00 | 46 | 1014.7 |
| 20260506152105 | 75 | 1 | 2.0 | 9.0 | 0.00 | 0.00 | 0.00 | 46 | 1014.6 |
| 20260506151906 | 75 | 35 | 2.0 | 9.0 | 0.00 | 0.00 | 0.00 | 45 | 1014.6 |
| 20260506151705 | 74 | 16 | 1.0 | 9.0 | 0.00 | 0.00 | 0.00 | 47 | 1014.6 |
| 20260506151505 | 74 | 339 | 3.0 | 9.0 | 0.00 | 0.00 | 0.00 | 47 | 1014.6 |
| 20260506151305 | 74 | 30 | 3.0 | 9.0 | 0.00 | 0.00 | 0.00 | 46 | 1014.8 |
| 20260506151105 | 74 | 27 | 1.0 | 7.0 | 0.00 | 0.00 | 0.00 | 46 | 1014.4 |
| 20260506150905 | 74 | 22 | 3.0 | 7.0 | 0.00 | 0.00 | 0.00 | 47 | 1014.8 |
| 20260506150705 | 73 | 246 | 0.0 | 7.0 | 0.00 | 0.00 | 0.00 | 47 | 1014.6 |
| 20260506150505 | 73 | 3 | 4.0 | 6.0 | 0.00 | 0.00 | 0.00 | 47 | 1014.7 |
| 20260506150308 | 73 | 2 | 3.0 | 6.0 | 0.00 | 0.00 | 0.00 | 47 | 1014.6 |
| 20260506150105 | 73 | 30 | 1.0 | 6.0 | 0.00 | 0.00 | 0.00 | 47 | 1014.7 |
| 20260506145905 | 73 | 0 | 2.0 | 6.0 | 0.00 | 0.00 | 0.00 | 46 | 1014.8 |
| 20260506145706 | 73 | 115 | 1.0 | 4.0 | 0.00 | 0.00 | 0.00 | 46 | 1014.8 |
| 20260506145506 | 73 | 3 | 2.0 | 4.0 | 0.00 | 0.00 | 0.00 | 47 | 1014.7 |
| 20260506145306 | 73 | 0 | 1.0 | 4.0 | 0.00 | 0.00 | 0.00 | 46 | 1014.6 |
| 20260506145106 | 74 | 22 | 2.0 | 4.0 | 0.00 | 0.00 | 0.00 | 45 | 1014.7 |
| 20260506144906 | 74 | 341 | 0.0 | 4.0 | 0.00 | 0.00 | 0.00 | 44 | 1014.6 |
| 20260506144716 | 74 | 356 | 1.0 | 4.0 | 0.00 | 0.00 | 0.00 | 43 | 1014.7 |
| 20260506144517 | 74 | 69 | 0.0 | 4.0 | 0.00 | 0.00 | 0.00 | 43 | 1014.7 |
| 20260506144328 | 74 | 1 | 1.0 | 4.0 | 0.00 | 0.00 | 0.00 | 43 | 1014.7 |
| 20260506144105 | 74 | 346 | 2.0 | 5.0 | 0.00 | 0.00 | 0.00 | 43 | 1014.7 |
| 20260506143905 | 74 | 43 | 1.0 | 5.0 | 0.00 | 0.00 | 0.00 | 43 | 1014.3 |
| 20260506143705 | 74 | 34 | 2.0 | 5.0 | 0.00 | 0.00 | 0.00 | 43 | 1014.3 |
| 20260506143505 | 74 | 343 | 1.0 | 5.0 | 0.00 | 0.00 | 0.00 | 44 | 1014.6 |
| 20260506143306 | 74 | 23 | 2.0 | 5.0 | 0.00 | 0.00 | 0.00 | 44 | 1014.4 |
| 20260506143105 | 75 | 326 | 3.0 | 4.0 | 0.00 | 0.00 | 0.00 | 43 | 1014.7 |
| 20260506142905 | 75 | 345 | 2.0 | 3.0 | 0.00 | 0.00 | 0.00 | 41 | 1014.8 |
| 20260506142705 | 75 | 65 | 1.0 | 3.0 | 0.00 | 0.00 | 0.00 | 41 | 1014.7 |
| 20260506142505 | 76 | 275 | 0.0 | 3.0 | 0.00 | 0.00 | 0.00 | 41 | 1014.6 |
| 20260506142306 | 76 | 315 | 0.0 | 3.0 | 0.00 | 0.00 | 0.00 | 41 | 1014.6 |
| 20260506142106 | 76 | 176 | 1.0 | 3.0 | 0.00 | 0.00 | 0.00 | 40 | 1014.6 |
| 20260506141906 | 76 | 129 | 0.0 | 3.0 | 0.00 | 0.00 | 0.00 | 40 | 1014.6 |
| 20260506141706 | 76 | 290 | 0.0 | 3.0 | 0.00 | 0.00 | 0.00 | 40 | 1014.6 |
| 20260506141506 | 76 | 75 | 0.0 | 3.0 | 0.00 | 0.00 | 0.00 | 40 | 1014.4 |
| 20260506141306 | 77 | 155 | 2.0 | 3.0 | 0.00 | 0.00 | 0.00 | 39 | 1014.8 |
| 20260506141105 | 77 | 279 | 1.0 | 3.0 | 0.00 | 0.00 | 0.00 | 39 | 1014.2 |
| 20260506140906 | 77 | 5 | 0.0 | 3.0 | 0.00 | 0.00 | 0.00 | 40 | 1014.7 |
| 20260506140706 | 76 | 226 | 0.0 | 3.0 | 0.00 | 0.00 | 0.00 | 40 | 1014.7 |
| 20260506140506 | 76 | 355 | 0.0 | 3.0 | 0.00 | 0.00 | 0.00 | 40 | 1014.6 |
| 20260506140306 | 76 | 325 | 0.0 | 3.0 | 0.00 | 0.00 | 0.00 | 41 | 1014.6 |
| 20260506140107 | 75 | 279 | 1.0 | 3.0 | 0.00 | 0.00 | 0.00 | 41 | 1014.7 |
| 20260506135905 | 75 | 195 | 1.0 | 4.0 | 0.00 | 0.00 | 0.00 | 42 | 1014.8 |
| 20260506135706 | 75 | 137 | 0.0 | 4.0 | 0.00 | 0.00 | 0.00 | 42 | 1014.8 |
| 20260506135506 | 75 | 155 | 3.0 | 4.0 | 0.00 | 0.00 | 0.00 | 42 | 1014.7 |
| 20260506135306 | 75 | 144 | 2.0 | 4.0 | 0.00 | 0.00 | 0.00 | 41 | 1014.6 |
| 20260506135105 | 75 | 21 | 1.0 | 4.0 | 0.00 | 0.00 | 0.00 | 40 | 1014.8 |
| 20260506134905 | 75 | 156 | 1.0 | 4.0 | 0.00 | 0.00 | 0.00 | 40 | 1014.6 |
| 20260506134705 | 75 | 55 | 2.0 | 4.0 | 0.00 | 0.00 | 0.00 | 41 | 1014.7 |
| 20260506134505 | 75 | 36 | 2.0 | 5.0 | 0.00 | 0.00 | 0.00 | 41 | 1014.8 |
| 20260506134305 | 75 | 342 | 4.0 | 5.0 | 0.00 | 0.00 | 0.00 | 40 | 1014.3 |
| 20260506133906 | 76 | 357 | 2.0 | 6.0 | 0.00 | 0.00 | 0.00 | 39 | 1014.6 |
| 20260506133705 | 76 | 41 | 3.0 | 6.0 | 0.00 | 0.00 | 0.00 | 39 | 1014.6 |
| 20260506133505 | 76 | 38 | 2.0 | 6.0 | 0.00 | 0.00 | 0.00 | 39 | 1014.4 |
| 20260506133306 | 76 | 3 | 3.0 | 6.0 | 0.00 | 0.00 | 0.00 | 38 | 1014.7 |
| 20260506133105 | 76 | 36 | 0.0 | 6.0 | 0.00 | 0.00 | 0.00 | 39 | 1014.6 |
| 20260506132905 | 77 | 7 | 3.0 | 6.0 | 0.00 | 0.00 | 0.00 | 39 | 1014.6 |
| 20260506132705 | 77 | 2 | 2.0 | 6.0 | 0.00 | 0.00 | 0.00 | 38 | 1014.4 |
| 20260506132505 | 78 | 1 | 2.0 | 5.0 | 0.00 | 0.00 | 0.00 | 39 | 1014.6 |
| 20260506132307 | 78 | 7 | 2.0 | 5.0 | 0.00 | 0.00 | 0.00 | 38 | 1014.6 |
| 20260506132105 | 79 | 349 | 3.0 | 5.0 | 0.00 | 0.00 | 0.00 | 35 | 1014.7 |
| 20260506131907 | 79 | 323 | 1.0 | 5.0 | 0.00 | 0.00 | 0.00 | 32 | 1014.7 |
| 20260506131706 | 80 | 145 | 0.0 | 5.0 | 0.00 | 0.00 | 0.00 | 30 | 1014.6 |
| 20260506131506 | 80 | 31 | 5.0 | 7.0 | 0.00 | 0.00 | 0.00 | 30 | 1014.4 |
| 20260506131306 | 80 | 290 | 1.0 | 7.0 | 0.00 | 0.00 | 0.00 | 30 | 1014.4 |
| 20260506131106 | 81 | 219 | 0.0 | 7.0 | 0.00 | 0.00 | 0.00 | 30 | 1014.4 |
| 20260506130906 | 81 | 345 | 2.0 | 7.0 | 0.00 | 0.00 | 0.00 | 29 | 1014.6 |
| 20260506130705 | 81 | 350 | 7.0 | 7.0 | 0.00 | 0.00 | 0.00 | 30 | 1014.4 |
| 20260506130506 | 82 | 357 | 1.0 | 5.0 | 0.00 | 0.00 | 0.00 | 30 | 1014.4 |
| 20260506130306 | 81 | 149 | 0.0 | 5.0 | 0.00 | 0.00 | 0.00 | 34 | 1014.6 |
| 20260506130105 | 81 | 189 | 0.0 | 5.0 | 0.00 | 0.00 | 0.00 | 32 | 1014.3 |
| 20260506125906 | 81 | 38 | 3.0 | 5.0 | 0.00 | 0.00 | 0.00 | 31 | 1014.8 |
| 20260506125706 | 81 | 340 | 2.0 | 5.0 | 0.00 | 0.00 | 0.00 | 32 | 1014.4 |
| 20260506125505 | 81 | 11 | 2.0 | 5.0 | 0.00 | 0.00 | 0.00 | 31 | 1014.7 |
| 20260506125306 | 82 | 325 | 2.0 | 5.0 | 0.00 | 0.00 | 0.00 | 31 | 1014.4 |
| 20260506125106 | 81 | 337 | 2.0 | 5.0 | 0.00 | 0.00 | 0.00 | 31 | 1014.4 |
| 20260506124905 | 82 | 66 | 2.0 | 5.0 | 0.00 | 0.00 | 0.00 | 30 | 1014.7 |
| 20260506124705 | 82 | 340 | 0.0 | 5.0 | 0.00 | 0.00 | 0.00 | 29 | 1014.7 |
| 20260506124505 | 82 | 242 | 2.0 | 5.0 | 0.00 | 0.00 | 0.00 | 30 | 1014.6 |
| 20260506124305 | 81 | 185 | 2.0 | 5.0 | 0.00 | 0.00 | 0.00 | 28 | 1014.9 |
| 20260506124105 | 81 | 212 | 2.0 | 5.0 | 0.00 | 0.00 | 0.00 | 29 | 1014.9 |
| 20260506123905 | 82 | 210 | 3.0 | 4.0 | 0.00 | 0.00 | 0.00 | 30 | 1014.7 |
| 20260506123706 | 81 | 234 | 2.0 | 4.0 | 0.00 | 0.00 | 0.00 | 31 | 1014.7 |
| 20260506123505 | 81 | 199 | 1.0 | 6.0 | 0.00 | 0.00 | 0.00 | 27 | 1014.3 |
| 20260506123305 | 82 | 244 | 1.0 | 6.0 | 0.00 | 0.00 | 0.00 | 26 | 1014.8 |
| 20260506123105 | 81 | 223 | 2.0 | 6.0 | 0.00 | 0.00 | 0.00 | 26 | 1014.8 |
| 20260506122905 | 80 | 256 | 0.0 | 6.0 | 0.00 | 0.00 | 0.00 | 29 | 1014.9 |
| 20260506122705 | 80 | 325 | 0.0 | 6.0 | 0.00 | 0.00 | 0.00 | 28 | 1014.8 |
| 20260506122505 | 80 | 26 | 0.0 | 3.0 | 0.00 | 0.00 | 0.00 | 29 | 1014.7 |
| 20260506122306 | 80 | 248 | 1.0 | 4.0 | 0.00 | 0.00 | 0.00 | 29 | 1014.9 |
| 20260506122105 | 80 | 23 | 1.0 | 4.0 | 0.00 | 0.00 | 0.00 | 28 | 1015.0 |
| 20260506121906 | 80 | 297 | 0.0 | 4.0 | 0.00 | 0.00 | 0.00 | 29 | 1014.8 |
| 20260506121706 | 81 | 8 | 1.0 | 4.0 | 0.00 | 0.00 | 0.00 | 27 | 1014.9 |
| 20260506121505 | 82 | 25 | 0.0 | 4.0 | 0.00 | 0.00 | 0.00 | 27 | 1015.0 |
| 20260506121305 | 82 | 316 | 0.0 | 4.0 | 0.00 | 0.00 | 0.00 | 27 | 1015.0 |
| 20260506121106 | 82 | 155 | 2.0 | 4.0 | 0.00 | 0.00 | 0.00 | 28 | 1014.7 |
| 20260506120906 | 82 | 191 | 2.0 | 4.0 | 0.00 | 0.00 | 0.00 | 28 | 1014.9 |
| 20260506120705 | 81 | 32 | 0.0 | 4.0 | 0.00 | 0.00 | 0.00 | 31 | 1014.8 |
| 20260506120505 | 81 | 324 | 1.0 | 4.0 | 0.00 | 0.00 | 0.00 | 29 | 1015.1 |
| 20260506120305 | 81 | 242 | 3.0 | 4.0 | 0.00 | 0.00 | 0.00 | 28 | 1015.0 |
| 20260506120105 | 81 | 326 | 1.0 | 4.0 | 0.00 | 0.00 | 0.00 | 28 | 1015.0 |
| 20260506115906 | 81 | 221 | 1.0 | 4.0 | 0.00 | 0.00 | 0.00 | 30 | 1015.2 |
| 20260506115706 | 81 | 239 | 2.0 | 4.0 | 0.00 | 0.00 | 0.00 | 30 | 1015.0 |
| 20260506115507 | 81 | 358 | 2.0 | 4.0 | 0.00 | 0.00 | 0.00 | 29 | 1015.1 |
| 20260506115307 | 81 | 201 | 2.0 | 5.0 | 0.00 | 0.00 | 0.00 | 29 | 1015.0 |
| 20260506115106 | 80 | 242 | 0.0 | 6.0 | 0.00 | 0.00 | 0.00 | 29 | 1015.0 |
| 20260506114906 | 79 | 37 | 1.0 | 6.0 | 0.00 | 0.00 | 0.00 | 30 | 1015.1 |
| 20260506114705 | 79 | 56 | 0.0 | 6.0 | 0.00 | 0.00 | 0.00 | 30 | 1015.1 |
| 20260506114505 | 79 | 195 | 0.0 | 8.0 | 0.00 | 0.00 | 0.00 | 29 | 1015.1 |
| 20260506114305 | 80 | 246 | 2.0 | 8.0 | 0.00 | 0.00 | 0.00 | 30 | 1015.2 |
| 20260506114105 | 80 | 263 | 2.0 | 8.0 | 0.00 | 0.00 | 0.00 | 31 | 1015.2 |
| 20260506113906 | 80 | 233 | 3.0 | 8.0 | 0.00 | 0.00 | 0.00 | 30 | 1015.1 |
| 20260506113705 | 80 | 285 | 2.0 | 8.0 | 0.00 | 0.00 | 0.00 | 30 | 1015.3 |
| 20260506113506 | 80 | 205 | 0.0 | 5.0 | 0.00 | 0.00 | 0.00 | 29 | 1015.2 |
| 20260506113306 | 80 | 30 | 2.0 | 5.0 | 0.00 | 0.00 | 0.00 | 28 | 1014.9 |
| 20260506113106 | 81 | 177 | 0.0 | 5.0 | 0.00 | 0.00 | 0.00 | 30 | 1015.1 |
| 20260506112905 | 80 | 237 | 0.0 | 5.0 | 0.00 | 0.00 | 0.00 | 30 | 1015.2 |
| 20260506112707 | 80 | 252 | 2.0 | 6.0 | 0.00 | 0.00 | 0.00 | 30 | 1015.2 |
| 20260506112505 | 79 | 250 | 3.0 | 8.0 | 0.00 | 0.00 | 0.00 | 30 | 1015.4 |
| 20260506112306 | 79 | 248 | 3.0 | 8.0 | 0.00 | 0.00 | 0.00 | 34 | 1015.4 |
| 20260506112106 | 80 | 243 | 2.0 | 8.0 | 0.00 | 0.00 | 0.00 | 29 | 1015.4 |
| 20260506111705 | 80 | 283 | 7.0 | 8.0 | 0.00 | 0.00 | 0.00 | 31 | 1015.2 |
| 20260506111505 | 80 | 211 | 3.0 | 8.0 | 0.00 | 0.00 | 0.00 | 32 | 1015.5 |
| 20260506111313 | 80 | 218 | 3.0 | 8.0 | 0.00 | 0.00 | 0.00 | 32 | 1015.3 |
| 20260506111106 | 80 | 241 | 4.0 | 8.0 | 0.00 | 0.00 | 0.00 | 34 | 1015.2 |
| 20260506110905 | 79 | 231 | 2.0 | 8.0 | 0.00 | 0.00 | 0.00 | 39 | 1015.1 |
| 20260506110705 | 79 | 226 | 5.0 | 8.0 | 0.00 | 0.00 | 0.00 | 35 | 1015.4 |
| 20260506110505 | 80 | 229 | 4.0 | 8.0 | 0.00 | 0.00 | 0.00 | 34 | 1015.3 |
| 20260506110305 | 79 | 242 | 3.0 | 8.0 | 0.00 | 0.00 | 0.00 | 33 | 1015.2 |
| 20260506110105 | 80 | 243 | 3.0 | 8.0 | 0.00 | 0.00 | 0.00 | 35 | 1015.4 |
| 20260506105905 | 79 | 256 | 3.0 | 8.0 | 0.00 | 0.00 | 0.00 | 33 | 1015.4 |
| 20260506105705 | 78 | 241 | 2.0 | 8.0 | 0.00 | 0.00 | 0.00 | 33 | 1015.5 |
| 20260506105506 | 78 | 245 | 4.0 | 8.0 | 0.00 | 0.00 | 0.00 | 34 | 1015.2 |
| 20260506105305 | 79 | 231 | 6.0 | 7.0 | 0.00 | 0.00 | 0.00 | 35 | 1015.4 |
| 20260506105105 | 79 | 231 | 5.0 | 7.0 | 0.00 | 0.00 | 0.00 | 34 | 1015.4 |
| 20260506104905 | 79 | 219 | 3.0 | 6.0 | 0.00 | 0.00 | 0.00 | 35 | 1015.6 |
| 20260506104705 | 79 | 218 | 2.0 | 6.0 | 0.00 | 0.00 | 0.00 | 31 | 1015.4 |
| 20260506104505 | 79 | 215 | 3.0 | 6.0 | 0.00 | 0.00 | 0.00 | 34 | 1015.5 |
| 20260506104306 | 78 | 256 | 2.0 | 5.0 | 0.00 | 0.00 | 0.00 | 33 | 1015.4 |
| 20260506104105 | 78 | 255 | 4.0 | 5.0 | 0.00 | 0.00 | 0.00 | 34 | 1015.4 |
| 20260506103905 | 78 | 247 | 4.0 | 5.0 | 0.00 | 0.00 | 0.00 | 31 | 1015.7 |
| 20260506103705 | 79 | 188 | 3.0 | 5.0 | 0.00 | 0.00 | 0.00 | 30 | 1015.5 |
| 20260506103505 | 78 | 236 | 3.0 | 5.0 | 0.00 | 0.00 | 0.00 | 33 | 1015.8 |
| 20260506103306 | 78 | 200 | 3.0 | 5.0 | 0.00 | 0.00 | 0.00 | 33 | 1015.5 |
| 20260506103107 | 78 | 189 | 3.0 | 6.0 | 0.00 | 0.00 | 0.00 | 34 | 1015.7 |
| 20260506102905 | 77 | 202 | 0.0 | 7.0 | 0.00 | 0.00 | 0.00 | 33 | 1015.6 |
| 20260506102705 | 77 | 186 | 2.0 | 7.0 | 0.00 | 0.00 | 0.00 | 32 | 1015.6 |
| 20260506102505 | 77 | 232 | 2.0 | 7.0 | 0.00 | 0.00 | 0.00 | 35 | 1015.5 |
| 20260506102306 | 77 | 248 | 2.0 | 7.0 | 0.00 | 0.00 | 0.00 | 35 | 1015.5 |
| 20260506102105 | 77 | 233 | 4.0 | 7.0 | 0.00 | 0.00 | 0.00 | 33 | 1015.6 |
| 20260506101905 | 77 | 224 | 5.0 | 6.0 | 0.00 | 0.00 | 0.00 | 39 | 1015.7 |
| 20260506101705 | 77 | 246 | 4.0 | 6.0 | 0.00 | 0.00 | 0.00 | 39 | 1015.4 |
| 20260506101506 | 77 | 244 | 2.0 | 8.0 | 0.00 | 0.00 | 0.00 | 35 | 1015.5 |
| 20260506101306 | 76 | 106 | 0.0 | 8.0 | 0.00 | 0.00 | 0.00 | 33 | 1015.7 |
| 20260506101106 | 77 | 243 | 3.0 | 8.0 | 0.00 | 0.00 | 0.00 | 33 | 1015.6 |
| 20260506100906 | 77 | 223 | 2.0 | 8.0 | 0.00 | 0.00 | 0.00 | 35 | 1015.7 |
| 20260506100705 | 76 | 259 | 2.0 | 8.0 | 0.00 | 0.00 | 0.00 | 42 | 1015.8 |
| 20260506100505 | 76 | 227 | 5.0 | 8.0 | 0.00 | 0.00 | 0.00 | 38 | 1015.8 |
| 20260506100305 | 76 | 249 | 3.0 | 8.0 | 0.00 | 0.00 | 0.00 | 43 | 1015.7 |
| 20260506100105 | 76 | 245 | 1.0 | 8.0 | 0.00 | 0.00 | 0.00 | 37 | 1015.7 |
| 20260506095905 | 76 | 273 | 3.0 | 8.0 | 0.00 | 0.00 | 0.00 | 39 | 1015.9 |
| 20260506095706 | 76 | 192 | 4.0 | 8.0 | 0.00 | 0.00 | 0.00 | 39 | 1015.8 |